• Join FlightAware (Why Join?)
  • Login
  • US Flag 
10:59AM EST


 

Airport Tracker/Info


-or-


 

Live Flight TrackerFlight Track Log ✈ N926FM ✈ 10-Apr-2013 ✈ KSJC - KMHR

Flight Track Log - Related Links

Times and Time Zones

All times are in EDT time to prevent confusion due to time zone crossing. See the N926FM flight status page for this flight to view local times or setup timezone preferences in your user account.

Time Position Orientation Groundspeed Altitude Reporting Facility
EDT Latitude Longitude Course Direction KTS MPH feet Rate Location/Type
10:58AM 37.4167 -121.9333 58° Northeast 211 243 4,900  Level Northern Cal TRACON
10:59AM 37.3667 -121.8833 142° Southeast 240 276 6,300 2,053 Climbing Northern Cal TRACON
11:00AM 37.3167 -121.8333 141° Southeast 258 297 8,800 2,713 Climbing Northern Cal TRACON
11:01AM 37.2833 -121.9000 238° Southwest 260 299 11,500 1,600 Climbing Northern Cal TRACON
11:02AM 37.3500 -121.9333 338° Northwest 275 316 12,000 250 Climbing Northern Cal TRACON
11:03AM 37.4500 -121.9500 352° North 334 384 12,000  Level Northern Cal TRACON
11:04AM 37.5333 -121.9500 360° North 351 404 12,000  Level Northern Cal TRACON
11:05AM 37.6333 -121.9167 15° North 350 403 12,000  Level Northern Cal TRACON
11:05AM 37.6494 -121.9075 24° Northeast 343 395 12,000  Level Oakland Center
11:06AM 37.7403 -121.8672 19° North 347 399 12,000  Level Oakland Center
11:07AM 37.8167 -121.8333 19° North 345 397 12,000  Level Northern Cal TRACON
11:08AM 37.9000 -121.7833 25° Northeast 349 402 12,000 -75 Level Northern Cal TRACON
11:08AM 37.9153 -121.7733 27° Northeast 345 397 11,900 -74 Descending Oakland Center
11:09AM 37.9975 -121.7117 31° Northeast 346 398 11,900 -393 Level Oakland Center
11:10AM 38.0800 -121.6494 31° Northeast 347 399 11,100 -848 Descending Oakland Center
11:11AM 38.1500 -121.6000 29° Northeast 325 374 10,500 -673 Descending Northern Cal TRACON
11:12AM 38.2167 -121.5500 31° Northeast 299 344 10,000 -850 Descending Northern Cal TRACON
11:13AM 38.2833 -121.5000 30° Northeast 239 275 8,800 -1,450 Descending Northern Cal TRACON
11:14AM 38.3167 -121.4500 50° Northeast 232 267 7,100 -1,600 Descending Northern Cal TRACON
11:15AM 38.3667 -121.4000 38° Northeast 238 274 5,600 -1,350 Descending Northern Cal TRACON
11:16AM 38.4333 -121.3500 30° Northeast 238 274 4,400 -1,079 Descending Northern Cal TRACON
11:16AM 38.4444 -121.3219 63° Northeast 238 274 4,000 -933 Descending Oakland Center
11:17AM 38.4922 -121.2664 42° Northeast 236 272 3,000 -738 Descending Oakland Center
11:18AM 38.5403 -121.2092 43° Northeast 236 272 2,500 -634 Descending Oakland Center
11:19AM 38.5831 -121.2092 360° North 196 226 1,700 -976 Descending Oakland Center
11:20AM 38.5753 -121.2594 259° West 158 182 500 -1,180 Descending Oakland Center